QPF
0.00 0.00 0.00 0.00 0.00 0.00 0.00 0.00 0.00 0.00 0.00 0.00 0.00 0.00 0.00 0.00 0.00 0.00 0.00 0.01 0.01 0.00 0.01 0.02 0.06 0.06 0.06 0.05 0.02 0.02 0.02 0.02 0.02 0.02 0.02 0.02 0.03 0.02 0.02 0.02 0.02 0.03 0.04 0.04
0.00 0.00 0.00 0.00 0.00 0.00 0.00 0.00 0.00 0.00 0.00 0.00 0.00 0.00 0.00 0.00 0.00 0.00 0.00 0.00 0.01 0.01 0.01 0.05 0.09 0.05 0.03 0.02 0.02 0.01 0.01 0.01 0.01 0.02 0.03 0.02 0.03 0.02 0.01 0.02 0.02 0.03 0.04 0.05
0.00 0.00 0.00 0.00 0.00 0.00 0.00 0.00 0.00 0.00 0.00 0.00 0.00 0.00 0.00 0.00 0.00 0.00 0.00 0.01 0.01 0.01 0.02 0.03 0.03 0.03 0.02 0.01 0.01 0.01 0.00 0.01 0.01 0.02 0.03 0.02 0.02 0.02 0.01 0.02 0.03 0.04 0.04 0.05
0.00 0.00 0.00 0.00 0.00 0.00 0.00 0.00 0.00 0.00 0.00 0.00 0.00 0.00 0.00 0.00 0.00 0.00 0.00 0.00 0.01 0.01 0.03 0.02 0.02 0.02 0.02 0.02 0.02 0.02 0.01 0.01 0.01 0.01 0.02 0.03 0.03 0.03 0.02 0.04 0.05 0.05 0.04 0.04
0.00 0.00 0.00 0.00 0.00 0.00 0.00 0.00 0.00 0.00 0.00 0.00 0.00 0.00 0.00 0.00 0.00 0.00 0.00 0.00 0.01 0.01 0.02 0.02 0.03 0.03 0.02 0.02 0.02 0.03 0.03 0.01 0.01 0.01 0.02 0.03 0.02 0.04 0.05 0.05 0.05 0.04 0.04 0.05
0.00 0.00 0.00 0.00 0.00 0.00 0.00 0.00 0.00 0.00 0.00 0.00 0.00 0.00 0.00 0.00 0.00 0.00 0.00 0.00 0.01 0.01 0.02 0.03 0.03 0.02 0.02 0.01 0.02 0.02 0.02 0.01 0.01 0.02 0.02 0.03 0.03 0.04 0.06 0.04 0.04 0.04 0.05 0.05
0.00 0.00 0.00 0.00 0.00 0.00 0.00 0.00 0.00 0.00 0.00 0.00 0.00 0.00 0.00 0.00 0.00 0.00 0.00 0.01 0.03 0.03 0.04 0.04 0.03 0.02 0.01 0.01 0.01 0.02 0.02 0.01 0.02 0.02 0.01 0.02 0.03 0.05 0.04 0.03 0.03 0.03 0.03 0.04
0.00 0.00 0.00 0.00 0.00 0.00 0.00 0.00 0.00 0.00 0.00 0.00 0.00 0.00 0.00 0.00 0.00 0.00 0.01 0.02 0.06 0.05 0.06 0.04 0.02 0.02 0.01 0.01 0.01 0.02 0.02 0.02 0.02 0.02 0.01 0.02 0.03 0.03 0.02 0.01 0.02 0.03 0.03 0.04
0.00 0.00 0.00 0.00 0.00 0.00 0.00 0.00 0.00 0.00 0.00 0.00 0.00 0.00 0.00 0.00 0.00 0.00 0.01 0.02 0.10 0.07 0.02 0.01 0.01 0.01 0.01 0.01 0.01 0.01 0.01 0.01 0.01 0.02 0.02 0.02 0.02 0.02 0.02 0.02 0.02 0.02 0.02 0.03
0.00 0.00 0.00 0.00 0.00 0.00 0.00 0.00 0.00 0.00 0.00 0.00 0.00 0.00 0.00 0.00 0.00 0.00 0.01 0.01 0.03 0.02 0.01 0.01 0.01 0.01 0.01 0.01 0.01 0.01 0.01 0.01 0.01 0.02 0.02 0.02 0.02 0.02 0.03 0.03 0.03 0.02 0.04 0.05
0.00 0.00 0.00 0.00 0.00 0.00 0.00 0.00 0.00 0.00 0.00 0.00 0.00 0.00 0.00 0.00 0.00 0.00 0.00 0.01 0.00 0.01 0.01 0.01 0.01 0.01 0.01 0.01 0.02 0.02 0.02 0.02 0.02 0.02 0.02 0.02 0.02 0.02 0.03 0.03 0.04 0.05 0.05 0.05
0.00 0.00 0.00 0.00 0.00 0.00 0.00 0.00 0.00 0.00 0.00 0.00 0.00 0.00 0.00 0.00 0.00 0.00 0.00 0.00 0.01 0.02 0.03 0.03 0.02 0.02 0.02 0.02 0.03 0.03 0.05 0.04 0.03 0.02 0.02 0.02 0.02 0.02 0.02 0.03 0.04 0.04 0.03 0.03
0.00 0.00 0.00 0.00 0.00 0.00 0.00 0.00 0.00 0.00 0.00 0.00 0.00 0.00 0.00 0.00 0.00 0.01 0.01 0.01 0.01 0.02 0.03 0.05 0.06 0.05 0.04 0.04 0.04 0.05 0.06 0.07 0.07 0.04 0.02 0.02 0.02 0.02 0.03 0.03 0.04 0.03 0.02 0.02
0.00 0.00 0.00 0.00 0.00 0.00 0.00 0.00 0.00 0.00 0.00 0.00 0.00 0.00 0.00 0.00 0.01 0.01 0.01 0.01 0.02 0.02 0.03 0.03 0.04 0.06 0.06 0.07 0.07 0.06 0.07 0.10 0.08 0.05 0.04 0.04 0.03 0.03 0.03 0.02 0.03 0.03 0.02 0.03
0.00 0.00 0.00 0.00 0.00 0.00 0.00 0.00 0.00 0.00 0.00 0.00 0.00 0.00 0.00 0.00 0.00 0.00 0.00 0.01 0.01 0.02 0.03 0.04 0.04 0.05 0.05 0.07 0.09 0.07 0.05 0.05 0.05 0.05 0.04 0.04 0.04 0.04 0.04 0.03 0.03 0.02 0.02 0.02
0.00 0.00 0.00 0.00 0.00 0.00 0.00 0.00 0.00 0.00 0.00 0.00 0.00 0.00 0.00 0.00 0.00 0.00 0.00 0.00 0.00 0.00 0.01 0.01 0.03 0.04 0.05 0.06 0.05 0.04 0.03 0.04 0.06 0.06 0.06 0.04 0.04 0.03 0.03 0.03 0.03 0.02 0.02 0.02
0.00 0.00 0.00 0.00 0.00 0.00 0.00 0.00 0.00 0.00 0.00 0.00 0.00 0.00 0.00 0.00 0.00 0.00 0.00 0.00 0.01 0.01 0.01 0.01 0.03 0.04 0.04 0.03 0.02 0.03 0.05 0.06 0.06 0.06 0.06 0.05 0.04 0.04 0.03 0.02 0.02 0.02 0.03 0.03
0.00 0.00 0.00 0.00 0.00 0.00 0.00 0.00 0.00 0.00 0.00 0.00 0.00 0.00 0.00 0.00 0.00 0.01 0.01 0.02 0.02 0.02 0.03 0.05 0.05 0.04 0.04 0.03 0.03 0.03 0.04 0.04 0.04 0.03 0.04 0.05 0.05 0.04 0.04 0.04 0.03 0.02 0.02 0.02
0.00 0.00 0.00 0.00 0.00 0.00 0.00 0.00 0.00 0.00 0.00 0.00 0.00 0.00 0.00 0.00 0.01 0.01 0.01 0.02 0.04 0.04 0.05 0.06 0.05 0.05 0.03 0.02 0.02 0.03 0.03 0.03 0.04 0.04 0.06 0.07 0.06 0.05 0.05 0.04 0.04 0.04 0.05 0.05
0.00 0.00 0.00 0.00 0.00 0.00 0.00 0.00 0.00 0.00 0.00 0.00 0.00 0.00 0.01 0.01 0.02 0.02 0.02 0.02 0.02 0.02 0.03 0.04 0.04 0.03 0.02 0.01 0.02 0.03 0.04 0.05 0.05 0.06 0.07 0.07 0.07 0.07 0.07 0.06 0.06 0.06 0.06 0.05
0.00 0.00 0.00 0.00 0.00 0.00 0.00 0.00 0.00 0.00 0.00 0.00 0.00 0.00 0.01 0.02 0.03 0.03 0.03 0.03 0.04 0.04 0.05 0.04 0.04 0.03 0.02 0.01 0.02 0.03 0.05 0.05 0.06 0.06 0.06 0.07 0.08 0.08 0.08 0.07 0.07 0.07 0.07 0.06
0.00 0.00 0.00 0.00 0.00 0.00 0.00 0.00 0.00 0.00 0.00 0.00 0.01 0.01 0.01 0.05 0.05 0.04 0.04 0.06 0.08 0.08 0.08 0.07 0.07 0.06 0.05 0.04 0.04 0.06 0.06 0.08 0.09 0.08 0.08 0.08 0.09 0.10 0.10 0.09 0.09 0.09 0.08 0.08
0.00 0.00 0.00 0.00 0.00 0.00 0.00 0.00 0.00 0.00 0.01 0.01 0.01 0.02 0.03 0.05 0.06 0.06 0.05 0.07 0.08 0.08 0.07 0.06 0.05 0.05 0.07 0.09 0.09 0.09 0.08 0.10 0.10 0.09 0.08 0.08 0.09 0.08 0.08 0.08 0.10 0.12 0.12 0.10
0.00 0.00 0.00 0.00 0.00 0.00 0.00 0.00 0.00 0.01 0.01 0.01 0.02 0.02 0.02 0.03 0.04 0.05 0.06 0.07 0.08 0.08 0.07 0.06 0.05 0.05 0.06 0.08 0.10 0.11 0.10 0.10 0.09 0.08 0.09 0.10 0.09 0.09 0.09 0.09 0.09 0.09 0.11 0.11
0.00 0.00 0.01 0.01 0.01 0.01 0.01 0.01 0.01 0.02 0.02 0.02 0.02 0.03 0.04 0.06 0.06 0.06 0.06 0.06 0.06 0.07 0.08 0.08 0.07 0.06 0.06 0.07 0.09 0.09 0.09 0.09 0.09 0.08 0.08 0.07 0.06 0.06 0.07 0.08 0.08 0.09 0.10 0.11
0.01 0.02 0.02 0.02 0.02 0.02 0.02 0.02 0.02 0.02 0.02 0.02 0.04 0.05 0.06 0.07 0.08 0.07 0.06 0.06 0.07 0.07 0.08 0.07 0.06 0.05 0.05 0.06 0.06 0.07 0.07 0.07 0.08 0.08 0.08 0.09 0.06 0.04 0.03 0.03 0.03 0.04 0.05 0.06
MSLP
1010.16 1011.13 1011.91 1012.47 1012.82 1013.02 1013.13 1013.22 1013.34 1013.52 1013.76 1014.01 1014.25 1014.45 1014.58 1014.63 1014.65 1014.64 1014.66 1014.72 1014.84 1015.01 1015.22 1015.43 1015.63 1015.79 1015.91 1016.01 1016.09 1016.20 1016.34 1016.54 1016.78 1017.05 1017.32 1017.55 1017.74 1017.85 1017.90 1017.90 1017.89 1017.89 1017.92 1018.00
1011.02 1011.80 1012.38 1012.78 1013.02 1013.19 1013.36 1013.57 1013.85 1014.20 1014.56 1014.89 1015.14 1015.25 1015.24 1015.13 1014.95 1014.78 1014.68 1014.67 1014.78 1014.98 1015.25 1015.52 1015.77 1015.95 1016.06 1016.13 1016.17 1016.23 1016.35 1016.53 1016.78 1017.08 1017.38 1017.64 1017.83 1017.93 1017.95 1017.90 1017.82 1017.76 1017.74 1017.78
1011.58 1012.14 1012.50 1012.73 1012.88 1013.04 1013.30 1013.66 1014.15 1014.69 1015.22 1015.65 1015.91 1015.97 1015.83 1015.54 1015.18 1014.85 1014.62 1014.54 1014.63 1014.87 1015.19 1015.53 1015.83 1016.05 1016.18 1016.22 1016.24 1016.27 1016.37 1016.55 1016.82 1017.14 1017.47 1017.77 1017.97 1018.07 1018.06 1017.96 1017.82 1017.70 1017.62 1017.62
1011.83 1012.14 1012.29 1012.36 1012.44 1012.64 1013.02 1013.59 1014.30 1015.08 1015.80 1016.34 1016.64 1016.64 1016.38 1015.92 1015.38 1014.87 1014.50 1014.34 1014.40 1014.65 1015.02 1015.42 1015.78 1016.03 1016.18 1016.23 1016.23 1016.25 1016.34 1016.52 1016.81 1017.16 1017.53 1017.85 1018.08 1018.18 1018.14 1018.01 1017.82 1017.63 1017.50 1017.45
1011.84 1011.92 1011.87 1011.82 1011.88 1012.15 1012.68 1013.47 1014.44 1015.46 1016.36 1017.03 1017.36 1017.31 1016.92 1016.29 1015.55 1014.87 1014.35 1014.08 1014.08 1014.32 1014.71 1015.15 1015.55 1015.85 1016.01 1016.07 1016.08 1016.09 1016.18 1016.37 1016.67 1017.05 1017.45 1017.81 1018.05 1018.15 1018.10 1017.94 1017.70 1017.47 1017.29 1017.20
1011.74 1011.61 1011.42 1011.29 1011.36 1011.73 1012.45 1013.46 1014.67 1015.91 1016.99 1017.75 1018.10 1017.98 1017.46 1016.65 1015.72 1014.84 1014.16 1013.76 1013.68 1013.87 1014.25 1014.71 1015.14 1015.46 1015.65 1015.72 1015.73 1015.75 1015.84 1016.04 1016.36 1016.76 1017.18 1017.55 1017.81 1017.91 1017.85 1017.66 1017.40 1017.13 1016.91 1016.80
1011.66 1011.38 1011.09 1010.94 1011.06 1011.55 1012.44 1013.66 1015.07 1016.48 1017.68 1018.50 1018.82 1018.62 1017.96 1016.96 1015.83 1014.76 1013.90 1013.37 1013.18 1013.31 1013.66 1014.11 1014.54 1014.88 1015.09 1015.18 1015.20 1015.22 1015.32 1015.52 1015.85 1016.26 1016.69 1017.07 1017.33 1017.44 1017.37 1017.17 1016.88 1016.58 1016.35 1016.22
1011.70 1011.33 1011.00 1010.86 1011.06 1011.67 1012.70 1014.07 1015.62 1017.12 1018.37 1019.18 1019.44 1019.12 1018.31 1017.14 1015.83 1014.58 1013.57 1012.90 1012.61 1012.66 1012.97 1013.39 1013.82 1014.17 1014.39 1014.49 1014.53 1014.56 1014.66 1014.87 1015.20 1015.61 1016.04 1016.42 1016.68 1016.78 1016.71 1016.49 1016.19 1015.89 1015.64 1015.50
1011.87 1011.48 1011.17 1011.08 1011.35 1012.06 1013.18 1014.63 1016.22 1017.73 1018.94 1019.67 1019.82 1019.38 1018.41 1017.09 1015.64 1014.25 1013.12 1012.35 1011.98 1011.97 1012.22 1012.63 1013.05 1013.39 1013.62 1013.75 1013.80 1013.85 1013.97 1014.18 1014.51 1014.91 1015.34 1015.71 1015.96 1016.06 1015.98 1015.76 1015.45 1015.14 1014.89 1014.76
1012.13 1011.78 1011.51 1011.50 1011.84 1012.60 1013.76 1015.19 1016.73 1018.15 1019.24 1019.84 1019.84 1019.26 1018.17 1016.74 1015.20 1013.74 1012.55 1011.73 1011.32 1011.27 1011.50 1011.89 1012.30 1012.66 1012.91 1013.05 1013.13 1013.21 1013.34 1013.57 1013.90 1014.29 1014.71 1015.07 1015.31 1015.40 1015.32 1015.10 1014.79 1014.49 1014.24 1014.12
1012.38 1012.10 1011.92 1011.98 1012.37 1013.14 1014.25 1015.59 1016.99 1018.23 1019.14 1019.55 1019.39 1018.69 1017.52 1016.05 1014.50 1013.06 1011.89 1011.09 1010.69 1010.65 1010.88 1011.27 1011.69 1012.06 1012.33 1012.50 1012.62 1012.72 1012.88 1013.13 1013.46 1013.86 1014.26 1014.62 1014.85 1014.94 1014.85 1014.64 1014.35 1014.05 1013.82 1013.72
1012.54 1012.35 1012.26 1012.38 1012.80 1013.53 1014.54 1015.72 1016.90 1017.91 1018.59 1018.80 1018.50 1017.70 1016.51 1015.08 1013.60 1012.26 1011.19 1010.48 1010.16 1010.17 1010.44 1010.84 1011.27 1011.66 1011.95 1012.16 1012.31 1012.45 1012.64 1012.91 1013.25 1013.65 1014.05 1014.40 1014.63 1014.72 1014.65 1014.45 1014.18 1013.90 1013.69 1013.60
1012.58 1012.48 1012.48 1012.65 1013.06 1013.72 1014.58 1015.54 1016.47 1017.22 1017.65 1017.67 1017.25 1016.41 1015.26 1013.94 1012.62 1011.45 1010.56 1010.00 1009.80 1009.89 1010.21 1010.64 1011.09 1011.49 1011.81 1012.04 1012.22 1012.40 1012.62 1012.90 1013.26 1013.66 1014.06 1014.40 1014.63 1014.72 1014.67 1014.50 1014.26 1014.01 1013.82 1013.74
1012.55 1012.54 1012.61 1012.81 1013.19 1013.74 1014.42 1015.14 1015.80 1016.28 1016.48 1016.33 1015.82 1015.00 1013.95 1012.80 1011.70 1010.76 1010.09 1009.73 1009.66 1009.86 1010.23 1010.69 1011.15 1011.55 1011.87 1012.12 1012.32 1012.52 1012.76 1013.06 1013.42 1013.82 1014.21 1014.54 1014.78 1014.88 1014.85 1014.71 1014.51 1014.29 1014.13 1014.06
1012.57 1012.63 1012.75 1012.96 1013.28 1013.70 1014.18 1014.67 1015.07 1015.30 1015.29 1015.01 1014.46 1013.69 1012.78 1011.84 1010.98 1010.30 1009.87 1009.70 1009.79 1010.08 1010.49 1010.96 1011.41 1011.79 1012.10 1012.34 1012.55 1012.76 1013.00 1013.30 1013.65 1014.04 1014.41 1014.74 1014.97 1015.08 1015.08 1014.97 1014.81 1014.63 1014.49 1014.43
1012.78 1012.89 1013.03 1013.22 1013.46 1013.75 1014.05 1014.31 1014.46 1014.47 1014.29 1013.91 1013.35 1012.66 1011.91 1011.19 1010.59 1010.16 1009.95 1009.96 1010.16 1010.52 1010.95 1011.41 1011.82 1012.17 1012.45 1012.67 1012.86 1013.05 1013.28 1013.57 1013.90 1014.25 1014.60 1014.90 1015.12 1015.23 1015.25 1015.17 1015.05 1014.90 1014.78 1014.73
1013.27 1013.41 1013.55 1013.70 1013.86 1014.02 1014.13 1014.18 1014.13 1013.95 1013.64 1013.19 1012.65 1012.05 1011.46 1010.94 1010.56 1010.34 1010.31 1010.45 1010.74 1011.13 1011.55 1011.97 1012.33 1012.63 1012.86 1013.04 1013.20 1013.37 1013.57 1013.82 1014.11 1014.42 1014.72 1014.98 1015.17 1015.28 1015.30 1015.25 1015.15 1015.04 1014.94 1014.88
1014.08 1014.22 1014.34 1014.44 1014.51 1014.53 1014.49 1014.36 1014.14 1013.82 1013.40 1012.92 1012.40 1011.88 1011.43 1011.08 1010.86 1010.81 1010.90 1011.13 1011.45 1011.83 1012.22 1012.57 1012.87 1013.10 1013.28 1013.42 1013.55 1013.69 1013.86 1014.06 1014.30 1014.55 1014.79 1014.99 1015.14 1015.23 1015.24 1015.20 1015.12 1015.03 1014.94 1014.87
1015.11 1015.23 1015.31 1015.35 1015.32 1015.23 1015.05 1014.78 1014.43 1014.00 1013.52 1013.02 1012.53 1012.09 1011.74 1011.51 1011.42 1011.46 1011.62 1011.88 1012.20 1012.54 1012.87 1013.16 1013.40 1013.58 1013.71 1013.82 1013.91 1014.02 1014.15 1014.31 1014.49 1014.67 1014.84 1014.98 1015.07 1015.12 1015.12 1015.08 1015.01 1014.92 1014.84 1014.76
1016.18 1016.26 1016.30 1016.26 1016.16 1015.96 1015.68 1015.31 1014.87 1014.38 1013.87 1013.37 1012.91 1012.53 1012.26 1012.10 1012.08 1012.17 1012.35 1012.61 1012.89 1013.19 1013.46 1013.69 1013.88 1014.02 1014.13 1014.22 1014.30 1014.38 1014.48 1014.59 1014.71 1014.82 1014.92 1014.98 1015.02 1015.03 1015.00 1014.95 1014.88 1014.80 1014.72 1014.63
1017.10 1017.13 1017.10 1017.01 1016.83 1016.56 1016.21 1015.78 1015.30 1014.79 1014.28 1013.80 1013.38 1013.05 1012.83 1012.73 1012.74 1012.84 1013.02 1013.24 1013.49 1013.74 1013.96 1014.15 1014.31 1014.43 1014.54 1014.62 1014.70 1014.77 1014.85 1014.92 1014.98 1015.02 1015.05 1015.05 1015.03 1014.99 1014.94 1014.88 1014.81 1014.74 1014.66 1014.57
1017.68 1017.66 1017.58 1017.42 1017.19 1016.88 1016.50 1016.06 1015.58 1015.09 1014.61 1014.18 1013.81 1013.54 1013.36 1013.29 1013.31 1013.41 1013.56 1013.76 1013.96 1014.17 1014.36 1014.54 1014.69 1014.81 1014.93 1015.02 1015.10 1015.17 1015.22 1015.26 1015.27 1015.25 1015.21 1015.15 1015.09 1015.01 1014.94 1014.88 1014.83 1014.77 1014.71 1014.62
1017.86 1017.78 1017.64 1017.44 1017.18 1016.86 1016.49 1016.08 1015.64 1015.21 1014.80 1014.43 1014.14 1013.92 1013.78 1013.73 1013.76 1013.85 1013.99 1014.15 1014.33 1014.52 1014.70 1014.86 1015.02 1015.16 1015.29 1015.40 1015.49 1015.55 1015.58 1015.57 1015.53 1015.46 1015.37 1015.26 1015.16 1015.07 1015.00 1014.95 1014.92 1014.89 1014.85 1014.78
1017.65 1017.52 1017.34 1017.12 1016.86 1016.56 1016.22 1015.88 1015.52 1015.17 1014.85 1014.58 1014.36 1014.20 1014.11 1014.08 1014.12 1014.20 1014.32 1014.47 1014.63 1014.80 1014.98 1015.15 1015.32 1015.48 1015.62 1015.73 1015.81 1015.85 1015.85 1015.80 1015.71 1015.59 1015.46 1015.32 1015.20 1015.11 1015.06 1015.04 1015.04 1015.06 1015.06 1015.02
1017.20 1017.02 1016.82 1016.59 1016.34 1016.09 1015.82 1015.56 1015.30 1015.06 1014.84 1014.66 1014.52 1014.43 1014.38 1014.38 1014.42 1014.50 1014.61 1014.74 1014.90 1015.07 1015.24 1015.42 1015.59 1015.75 1015.88 1015.98 1016.04 1016.04 1016.00 1015.90 1015.76 1015.60 1015.44 1015.29 1015.17 1015.10 1015.08 1015.10 1015.16 1015.23 1015.28 1015.29
1016.69 1016.48 1016.26 1016.04 1015.83 1015.63 1015.45 1015.28 1015.13 1014.99 1014.87 1014.78 1014.71 1014.67 1014.65 1014.67 1014.72 1014.79 1014.89 1015.02 1015.16 1015.32 1015.49 1015.67 1015.83 1015.97 1016.08 1016.15 1016.16 1016.11 1016.01 1015.86 1015.67 1015.48 1015.30 1015.15 1015.05 1015.01 1015.04 1015.13 1015.25 1015.37 1015.48 1015.55
Thickness
5822 5808 5798 5805 5810 5811 5806 5798 5793 5801 5817 5809 5801 5801 5807 5811 5809 5805 5803 5803 5801 5802 5804 5802 5799 5794 5789 5784 5779 5774 5769 5765 5761 5757 5752 5749 5747 5747 5746 5745 5744 5744 5743 5742
5801 5797 5813 5818 5816 5811 5805 5796 5794 5803 5814 5808 5799 5799 5808 5811 5811 5811 5808 5806 5805 5802 5801 5801 5799 5796 5791 5786 5781 5776 5772 5768 5764 5761 5757 5753 5751 5749 5748 5746 5745 5744 5743 5742
5795 5804 5819 5815 5810 5804 5802 5797 5798 5797 5804 5804 5799 5791 5799 5808 5813 5813 5813 5811 5809 5805 5802 5801 5799 5796 5793 5788 5784 5781 5775 5771 5767 5763 5758 5754 5750 5748 5746 5745 5744 5744 5743 5742
5797 5809 5813 5810 5808 5807 5795 5811 5808 5802 5788 5776 5786 5765 5789 5798 5802 5807 5810 5811 5811 5811 5808 5803 5801 5797 5795 5792 5788 5783 5778 5773 5769 5764 5759 5754 5749 5745 5745 5745 5745 5744 5743 5742
5792 5805 5806 5803 5809 5811 5806 5813 5805 5796 5783 5771 5775 5764 5776 5794 5795 5805 5812 5815 5817 5816 5812 5808 5805 5802 5800 5796 5791 5785 5780 5775 5771 5766 5761 5756 5751 5749 5747 5746 5744 5743 5742 5741
5795 5809 5812 5812 5817 5817 5812 5799 5788 5775 5766 5753 5767 5761 5767 5783 5797 5808 5816 5818 5820 5819 5817 5813 5810 5805 5801 5797 5792 5786 5780 5776 5772 5767 5763 5758 5753 5750 5747 5745 5743 5743 5742 5741
5782 5795 5809 5816 5805 5806 5799 5773 5747 5746 5736 5743 5763 5761 5769 5800 5810 5815 5817 5819 5821 5820 5817 5813 5809 5805 5801 5796 5792 5786 5781 5776 5773 5768 5764 5761 5756 5752 5749 5747 5745 5743 5741 5741
5759 5762 5794 5807 5802 5791 5788 5775 5746 5734 5731 5740 5757 5756 5782 5808 5814 5819 5821 5821 5821 5819 5818 5815 5813 5808 5803 5799 5793 5787 5782 5778 5774 5770 5765 5762 5758 5754 5751 5749 5747 5744 5743 5742
5751 5759 5793 5805 5810 5799 5779 5771 5772 5746 5740 5736 5744 5761 5787 5808 5810 5813 5815 5816 5816 5817 5817 5816 5813 5809 5805 5800 5795 5790 5784 5779 5775 5771 5766 5762 5759 5755 5753 5750 5748 5746 5744 5742
5763 5759 5780 5795 5801 5794 5789 5770 5752 5739 5725 5725 5742 5752 5764 5788 5796 5803 5807 5809 5812 5815 5815 5814 5811 5808 5804 5801 5796 5791 5786 5780 5775 5772 5767 5764 5760 5757 5753 5750 5747 5745 5744 5742
5766 5755 5765 5777 5778 5775 5774 5765 5748 5735 5738 5723 5724 5745 5785 5789 5795 5798 5804 5809 5810 5811 5811 5810 5808 5806 5802 5798 5794 5789 5785 5779 5775 5772 5768 5764 5761 5757 5753 5749 5747 5745 5742 5740
5755 5742 5740 5758 5777 5783 5780 5767 5752 5743 5734 5728 5728 5748 5796 5794 5797 5799 5802 5805 5808 5809 5808 5807 5806 5803 5799 5794 5791 5788 5784 5779 5776 5772 5767 5763 5760 5756 5752 5749 5746 5743 5740 5739
5749 5735 5726 5736 5749 5764 5766 5762 5755 5743 5728 5719 5725 5751 5791 5791 5793 5796 5799 5801 5803 5803 5804 5803 5801 5799 5795 5792 5789 5787 5783 5779 5775 5770 5766 5762 5758 5754 5751 5748 5745 5742 5739 5736
5750 5728 5725 5724 5732 5748 5754 5757 5752 5746 5729 5724 5734 5753 5774 5781 5785 5790 5794 5797 5798 5798 5798 5797 5795 5794 5793 5790 5788 5785 5782 5779 5774 5769 5764 5761 5757 5754 5750 5746 5743 5740 5737 5734
5739 5724 5730 5736 5745 5749 5752 5753 5753 5751 5744 5739 5747 5751 5767 5777 5782 5787 5791 5793 5793 5792 5793 5793 5792 5791 5789 5787 5785 5783 5780 5777 5772 5767 5762 5759 5756 5752 5748 5743 5740 5736 5734 5731
5722 5718 5724 5728 5737 5741 5742 5748 5751 5752 5750 5749 5752 5753 5769 5775 5780 5783 5785 5787 5787 5788 5789 5789 5789 5788 5786 5784 5782 5780 5778 5775 5770 5764 5759 5756 5752 5748 5744 5739 5735 5732 5729 5726
5706 5709 5706 5706 5720 5731 5724 5739 5744 5746 5748 5748 5744 5752 5762 5765 5770 5776 5780 5782 5784 5786 5786 5785 5785 5785 5785 5784 5782 5778 5775 5772 5767 5762 5757 5752 5748 5744 5740 5736 5731 5728 5724 5721
5699 5694 5688 5692 5707 5701 5721 5742 5744 5741 5740 5745 5747 5751 5755 5760 5768 5774 5779 5779 5780 5783 5783 5783 5782 5781 5781 5781 5779 5776 5771 5766 5762 5758 5754 5750 5746 5741 5736 5732 5728 5723 5719 5716
5695 5690 5679 5676 5683 5696 5717 5731 5732 5729 5729 5739 5739 5744 5749 5756 5762 5767 5774 5776 5777 5779 5781 5781 5782 5780 5777 5776 5774 5770 5766 5762 5758 5753 5750 5747 5743 5737 5733 5728 5723 5720 5715 5711
5681 5682 5674 5669 5676 5678 5704 5726 5734 5728 5718 5732 5734 5735 5739 5744 5740 5751 5766 5769 5772 5774 5777 5779 5779 5776 5772 5770 5766 5761 5758 5756 5753 5750 5746 5742 5738 5734 5730 5725 5720 5716 5711 5706
5664 5663 5663 5663 5669 5680 5704 5718 5724 5705 5709 5725 5727 5728 5730 5732 5736 5748 5757 5759 5763 5767 5769 5772 5771 5769 5767 5764 5760 5754 5751 5749 5748 5745 5740 5736 5733 5729 5725 5719 5715 5710 5705 5699
5651 5651 5652 5652 5658 5669 5700 5704 5700 5702 5713 5717 5719 5722 5724 5728 5734 5741 5746 5750 5754 5757 5759 5761 5761 5759 5759 5757 5753 5748 5745 5744 5741 5737 5733 5728 5725 5723 5718 5713 5708 5703 5698 5692
5643 5648 5649 5654 5662 5677 5686 5691 5698 5702 5704 5709 5711 5715 5718 5721 5725 5731 5735 5740 5744 5747 5749 5750 5750 5749 5749 5748 5746 5742 5740 5736 5732 5729 5725 5721 5717 5713 5710 5706 5701 5696 5691 5686
5640 5644 5645 5650 5662 5671 5678 5684 5690 5695 5698 5702 5705 5708 5711 5712 5716 5720 5724 5728 5732 5735 5738 5738 5739 5738 5737 5738 5737 5734 5731 5728 5724 5720 5716 5712 5708 5703 5699 5696 5693 5689 5684 5680
5632 5636 5637 5642 5653 5661 5670 5675 5681 5686 5690 5694 5697 5700 5702 5703 5706 5709 5712 5717 5720 5723 5725 5726 5726 5726 5725 5726 5726 5724 5722 5720 5715 5712 5708 5701 5697 5694 5690 5687 5683 5681 5678 5675
5624 5627 5630 5635 5645 5646 5655 5665 5672 5675 5679 5683 5686 5689 5692 5694 5696 5698 5701 5705 5709 5711 5713 5714 5716 5715 5713 5712 5713 5713 5712 5710 5706 5702 5697 5692 5686 5684 5681 5677 5672 5669 5667 5664